Location: A�t �Alizem
(31.2076°N, 8.7872°W)
Time: 06:30:55
(UTC+00:00)

NOAA 11 - Pass Details

Date: 27 November 2020
Orbit: 833 x 849 km, 98.4° (Epoch: 25 January)

Event Time Altitude Azimuth Distance (km) Brightness Sun altitude
Rises 18:35:52 0° 169° (S) 3,363 7.4 -13.5°
Reaches altitude 10° 18:38:12 10° 170° (S) 2,433 6.7 -13.9°
Maximum altitude 18:43:36 80° 257° (WSW) 850 4.3 -15.1°
Drops below altitude 10° 18:49:02 10° 345° (NNW) 2,450 6.6 -16.2°
Sets 18:51:25 0° 347° (NNW) 3,389 7.3 -16.7°
